St. Cloud, MN

8:50 PM CDT on May 27, 2017 (GMT -0500)
Saint Cloud Regional

Weather History for KSTC - July, 2013

Change the Weather History Date:

Friday, July 12, 2013

  Actual Average Record
Temperature  
Mean Temperature 79 °F 71 °F  
Max Temperature 89 °F 83 °F 105 °F (1936)
Min Temperature 68 °F 59 °F 43 °F (1975)
Degree Days  
Heating Degree Days 0 1  
Month to date heating degree days 0 12  
Since 1 June heating degree days 87 90  
Since 1 July heating degree days 0 12  
Cooling Degree Days 14 6  
Month to date cooling degree days 101 71  
Year to date cooling degree days 211 191  
Since 1 June cooling degree days 200 166  
Growing Degree Days 28 (Base 50)    
Moisture  
Dew Point 59 °F    
Average Humidity 53    
Maximum Humidity 66    
Minimum Humidity 40    
Precipitation  
Precipitation 0.14 in 0.10 in 2.20 in (1899)
Month to date precipitation 0.84 1.34  
Year to date precipitation 18.89 13.82  
Snow  
Snow 0.00 in 0.00 in 0.00 in ()
Month to date snowfall 0.0 0.0  
Since 1 June snowfall 0.0 0.0  
Since 1 July snowfall 0.0 0.0  
Snow Depth 0.00 in    
Sea Level Pressure  
Sea Level Pressure 29.93 in    
Wind  
Wind Speed 14 mph (SSE)    
Max Wind Speed 24 mph    
Max Gust Speed 31 mph    
Visibility 10 miles    
Events      
T = Trace of Precipitation, MM = Missing Value Source: NWS Daily Summary

Daily Weather History Graph

Daily Weather History Graph

Search for Another Location

Airport or City:

Trip Planner

Search our weather history database for the weather conditions in past years. The results will help you decide how hot, cold, wet, or windy it might be!

Date:

Astronomy

Jul. 12, 2013 Rise Set
Actual Time 5:39 AM CDT 9:03 PM CDT
Civil Twilight 5:02 AM CDT 9:40 PM CDT
Nautical Twilight 4:14 AM CDT 10:28 PM CDT
Astronomical Twilight 3:12 AM CDT 11:30 PM CDT
Moon 10:12 AM CDT (7/12) 10:57 PM CDT (7/12)
Length of Visible Light 16h 38m
Length of Day
15h 24m
Waxing Crescent, 17% of the Moon is Illuminated
Jul 12
Waxing Crescent
Jul 15
First Quarter
Jul 22
Full
Jul 29
Last Quarter
Aug 6
New

Hourly Weather History & Observations

Time (CDT) Temp. Heat Index Dew Point Humidity Pressure Visibility Wind Dir Wind Speed Gust Speed Precip Events Conditions
12:53 AM 71.1 °F - 55.9 °F 59% 29.97 in 10.0 mi SSE 11.5 mph - N/A   Clear
1:53 AM 72.0 °F - 55.9 °F 57% 29.96 in 10.0 mi South 11.5 mph - N/A   Partly Cloudy
2:53 AM 71.1 °F - 55.9 °F 59% 29.97 in 10.0 mi South 10.4 mph - N/A   Clear
3:53 AM 70.0 °F - 55.9 °F 61% 29.96 in 10.0 mi South 10.4 mph - N/A   Clear
4:53 AM 69.1 °F - 55.9 °F 63% 29.97 in 10.0 mi South 11.5 mph - N/A   Clear
5:53 AM 68.0 °F - 55.9 °F 65% 29.98 in 10.0 mi South 12.7 mph - N/A   Clear
6:53 AM 69.1 °F - 57.0 °F 65% 29.98 in 10.0 mi South 11.5 mph - N/A   Clear
7:53 AM 72.0 °F - 57.9 °F 61% 29.99 in 10.0 mi South 8.1 mph - N/A   Clear
8:53 AM 73.9 °F - 57.9 °F 57% 29.98 in 10.0 mi SSE 13.8 mph 20.7 mph N/A   Clear
9:53 AM 77.0 °F - 59.0 °F 54% 29.97 in 10.0 mi South 12.7 mph 23.0 mph N/A   Clear
10:53 AM 80.1 °F 80.9 °F 60.1 °F 50% 29.94 in 10.0 mi South 17.3 mph 25.3 mph N/A   Clear
11:53 AM 82.0 °F 82.7 °F 61.0 °F 49% 29.94 in 10.0 mi South 18.4 mph 25.3 mph N/A   Clear
12:53 PM 84.9 °F 85.4 °F 62.1 °F 46% 29.93 in 10.0 mi South 18.4 mph 25.3 mph N/A   Clear
1:53 PM 86.0 °F 86.3 °F 62.1 °F 44% 29.91 in 10.0 mi SSE 23.0 mph 29.9 mph N/A   Clear
2:53 PM 87.1 °F 87.5 °F 62.1 °F 43% 29.90 in 10.0 mi SSE 19.6 mph 29.9 mph N/A   Clear
3:53 PM 87.1 °F 87.5 °F 62.1 °F 43% 29.90 in 10.0 mi South 19.6 mph 26.5 mph N/A   Clear
4:53 PM 88.0 °F 88.4 °F 62.1 °F 42% 29.89 in 10.0 mi South 19.6 mph 31.1 mph N/A   Clear
5:53 PM 87.1 °F 87.0 °F 61.0 °F 41% 29.88 in 10.0 mi South 16.1 mph 29.9 mph N/A   Clear
6:53 PM 84.9 °F 85.0 °F 61.0 °F 44% 29.88 in 10.0 mi SSE 15.0 mph 26.5 mph N/A   Clear
7:53 PM 82.9 °F 83.7 °F 62.1 °F 49% 29.86 in 10.0 mi SSE 16.1 mph 25.3 mph N/A   Partly Cloudy
8:53 PM 81.0 °F 81.7 °F 61.0 °F 50% 29.86 in 10.0 mi SSE 16.1 mph - N/A   Clear
9:53 PM 79.0 °F - 60.1 °F 52% 29.88 in 10.0 mi South 11.5 mph - N/A   Clear
10:53 PM 79.0 °F - 60.1 °F 52% 29.91 in 10.0 mi South 12.7 mph 21.9 mph N/A   Clear
11:53 PM 78.1 °F - 60.1 °F 54% 29.91 in 10.0 mi South 13.8 mph 20.7 mph N/A   Clear